[[{"header":{"parameterUnit":"m.s-1","parameterCategory":1,"la1":30.2991,"la2":30.254,"lo1":-89.0895,"lo2":-89.0444,"dy":0.0017,"dx":0.0017,"nx":28,"ny":28,"refTime":"2024-12-01T09:00:00:Z","depth":0,"parameterNumber":2,"parameterNumberName":"U-component_of_WINDS"},"data":[0,0,0,0,0,0,0,0,0,0,0,0,0,0,0,0,0,0,0,0,0,0,0,0,0,0,0,0,0,0,0,0,0,0,0,0,0,0,0,0,0,0,0,0,0,0,0,0,0,0,0,0,0,0,0,0,0,0,-1.273,-1.273,0,-1.2696,-1.2696,-1.2696,-1.2596,-1.2593,-1.2591,-1.2589,-1.2557,-1.2559,-1.256,0,0,0,0,0,0,0,0,0,0,0,0,0,-1.2711,-1.2711,-1.273,-1.273,-1.2729,-1.2697,-1.2696,-1.2696,-1.2596,-1.2593,-1.2591,-1.2588,-1.2557,-1.2558,-1.256,0,0,0,0,0,0,0,0,0,0,0,0,0,-1.2702,-1.2712,-1.273,-1.2676,-1.267,-1.2697,-1.2696,-1.2695,-1.2596,-1.2593,-1.259,-1.2587,-1.2556,-1.2558,-1.256,-1.2637,0,0,-1.2566,-1.2566,0,0,0,0,0,0,0,0,-1.2703,-1.2703,-1.2684,-1.2679,-1.2673,-1.2647,-1.2677,-1.2676,-1.2597,-1.2625,-1.2589,-1.2585,-1.259,-1.2589,-1.259,-1.2636,-1.2635,-1.2566,-1.2567,-1.2568,-1.2568,0,0,0,0,0,0,0,-1.2704,-1.2704,-1.2717,-1.2684,-1.2677,-1.2654,-1.2649,-1.2677,-1.2626,-1.2622,-1.2615,-1.2612,-1.2586,-1.2588,-1.2588,-1.2634,-1.2566,-1.2567,-1.2568,-1.2569,-1.2743,-1.2747,0,0,0,0,0,0,-1.2712,-1.2705,-1.2718,-1.2716,-1.268,-1.2657,-1.2651,-1.2659,-1.2626,-1.2617,-1.2615,-1.2607,-1.2587,-1.2586,-1.2587,-1.2676,-1.2568,-1.2569,-1.257,-1.274,-1.2744,-1.2748,0,0,0,0,0,0,-1.2712,-1.2714,-1.2719,-1.2709,-1.2707,-1.266,-1.267,-1.266,-1.2661,-1.262,-1.2611,-1.2626,-1.2584,-1.2584,-1.2626,-1.2674,-1.257,-1.2572,-1.2736,-1.2741,-1.2746,-1.2856,0,0,0,0,0,0,-1.2712,-1.2714,-1.2743,-1.271,-1.2708,-1.2758,-1.2673,-1.2662,-1.2665,-1.2655,-1.2628,-1.2621,-1.2582,-1.2624,-1.2628,-1.2674,-1.2573,-1.2731,-1.2738,-1.2744,-1.2848,-1.2864,-1.2878,0,0,0,0,0,-1.2711,-1.2775,-1.2745,-1.2747,-1.2743,-1.2761,-1.276,-1.2713,-1.2669,-1.2697,-1.2671,-1.2621,-1.2668,-1.2629,-1.2632,-1.2681,-1.2728,-1.2736,-1.2744,-1.2841,-1.2861,-1.2878,0,0,0,0,0,0,-1.2816,-1.277,-1.2735,-1.279,-1.278,-1.2744,-1.2779,-1.2736,-1.2739,-1.273,-1.2672,-1.2667,-1.2717,-1.2702,-1.266,-1.2754,-1.269,-1.2699,-1.2762,-1.2781,-1.2796,-1.2799,-1.2575,0,0,0,0,0,-1.2845,-1.2863,-1.2822,-1.2875,-1.2871,-1.2826,-1.2833,-1.2797,-1.2785,-1.278,-1.2757,-1.2747,-1.276,-1.2769,-1.2778,-1.2844,-1.2838,-1.2879,-1.2895,-1.2908,-1.2917,-1.2952,-1.297,-1.2774,-1.2774,-1.2774,0,0,-1.2906,-1.2883,-1.2898,-1.2895,-1.2883,-1.2904,-1.2823,-1.2849,-1.2864,-1.2784,-1.2822,-1.2805,-1.279,-1.2845,-1.2868,-1.2835,-1.2969,-1.2918,-1.2928,-1.293,-1.2962,-1.2981,-1.2997,-1.2779,-1.2778,-1.2778,0,0,-1.3028,-1.3012,-1.3055,-1.3044,-1.3027,-1.2996,-1.3007,-1.2977,-1.2962,-1.2999,-1.294,-1.2958,-1.298,-1.2973,-1.2972,-1.3092,-1.3047,-1.3096,-1.3177,-1.3212,-1.3228,-1.3241,-1.3286,-1.3302,-1.3105,-1.3105,-1.3106,0,-1.3107,-1.3135,-1.3082,-1.3112,-1.3113,-1.304,-1.3084,-1.3077,-1.3064,-1.3067,-1.3029,-1.3056,-1.3041,-1.3094,-1.3123,-1.3124,-1.3136,-1.31,-1.3229,-1.3243,-1.3254,-1.3296,-1.3313,-1.3112,-1.3111,-1.311,-1.311,0,-1.3233,-1.3254,-1.329,-1.3279,-1.3284,-1.332,-1.3274,-1.3286,-1.325,-1.3224,-1.3264,-1.3243,-1.3247,-1.3257,-1.3223,-1.3305,-1.3285,-1.324,-1.3174,-1.328,-1.3319,-1.3334,-1.3121,-1.3118,-1.3117,-1.3115,0,0,-1.342,-1.338,-1.3394,-1.3389,-1.3364,-1.338,-1.3413,-1.3417,-1.3429,-1.3422,-1.345,-1.347,-1.3428,-1.3428,-1.3392,-1.3422,-1.3521,-1.3373,-1.3372,-1.3403,-1.3612,-1.3648,-1.3667,-1.349,-1.3493,-1.3495,-1.3614,0,-1.3537,-1.3592,-1.3545,-1.3609,-1.3628,-1.356,-1.359,-1.3579,-1.3556,-1.3569,-1.3543,-1.356,-1.3502,-1.3501,-1.3528,-1.3503,-1.3562,-1.3494,-1.3517,-1.3519,-1.3524,-1.3687,-1.3724,-1.3838,-1.3629,-1.3631,-1.3633,0,-1.3681,-1.368,-1.3746,-1.3718,-1.3725,-1.3752,-1.3752,-1.3765,-1.3752,-1.3733,-1.3733,-1.3688,-1.3721,-1.3655,-1.37,-1.3654,-1.3661,-1.365,-1.3653,-1.3655,-1.3583,-1.3695,-1.3872,-1.389,-1.3656,-1.3654,-1.3652,0,-1.3813,-1.3829,-1.387,-1.3868,-1.3836,-1.3857,-1.3845,-1.3828,-1.3833,-1.3833,-1.3837,-1.3841,-1.3844,-1.3849,-1.3808,-1.3763,-1.3858,-1.3789,-1.3845,-1.3846,-1.3869,-1.3868,-1.4052,-1.3871,-1.3871,-1.387,-1.387,0,-1.3949,-1.3992,-1.3929,-1.3955,-1.4002,-1.3949,-1.3997,-1.3978,-1.3964,-1.3985,-1.3926,-1.3948,-1.3892,-1.3908,-1.3876,-1.3919,-1.392,-1.3907,-1.3898,-1.3913,-1.3915,-1.3918,-1.391,-1.3875,-1.3874,-1.3873,-1.3872,0,-1.4105,-1.4065,-1.4106,-1.4072,-1.4065,-1.4101,-1.4073,-1.4096,-1.4068,-1.4097,-1.4101,-1.4058,-1.4075,-1.4033,-1.4044,-1.4022,-1.4084,-1.4062,-1.4089,-1.4083,-1.4141,-1.4137,-1.4335,-1.4359,-1.4161,-1.4163,-1.4165,0,-1.4195,-1.4227,-1.4197,-1.4207,-1.4198,-1.4215,-1.422,-1.4169,-1.4177,-1.4164,-1.419,-1.4201,-1.4207,-1.4237,-1.4208,-1.4215,-1.4194,-1.4263,-1.4195,-1.4209,-1.4197,-1.4196,-1.42,-1.4277,-1.428,-1.4282,-1.4283,0,-1.436,-1.4339,-1.4348,-1.4351,-1.4358,-1.4358,-1.4354,-1.4366,-1.4311,-1.4324,-1.4339,-1.4344,-1.4355,-1.4367,-1.4369,-1.4357,-1.4313,-1.4305,-1.4318,-1.4335,-1.435,-1.4344,-1.4129,-1.4301,-1.4299,-1.4298,-1.4297,-1.4296,-1.4487,-1.4513,-1.4496,-1.4508,-1.4499,-1.4497,-1.4518,-1.4493,-1.4504,-1.4509,-1.4478,-1.4501,-1.4487,-1.4484,-1.4478,-1.4496,-1.4464,-1.4484,-1.4489,-1.4495,-1.4506,-1.4345,-1.4495,-1.4495,-1.4494,-1.4494,-1.4494,0,-1.465,-1.4636,-1.4648,-1.4644,-1.4654,-1.4609,-1.4603,-1.4615,-1.4635,-1.4626,-1.4633,-1.4652,-1.4664,-1.4636,-1.4644,-1.4664,-1.4644,-1.4668,-1.4667,-1.4666,-1.4532,-1.452,-1.4685,-1.4685,-1.4685,-1.4685,-1.4684,-1.4684,-1.4737,-1.4778,-1.4755,-1.4791,-1.4776,-1.4798,-1.4798,-1.4796,-1.4788,-1.4812,-1.4821,-1.4803,-1.4786,-1.4793,-1.4802,-1.4794,-1.48,-1.4832,-1.4817,-1.4693,-1.4675,-1.4657,-1.4646,-1.4834,-1.4834,-1.4949,-1.495,-1.4951]},{"header":{"parameterUnit":"m.s-1","parameterCategory":1,"la1":30.2991,"la2":30.254,"lo1":-89.0895,"lo2":-89.0444,"dy":0.0017,"dx":0.0017,"nx":28,"ny":28,"refTime":"2024-12-01T09:00:00:Z","depth":0,"parameterNumber":3,"parameterNumberName":"V-component_of_WINDS"},"data":[0,0,0,0,0,0,0,0,0,0,0,0,0,0,0,0,0,0,0,0,0,0,0,0,0,0,0,0,0,0,0,0,0,0,0,0,0,0,0,0,0,0,0,0,0,0,0,0,0,0,0,0,0,0,0,0,0,0,-1.2844,-1.2844,0,-1.2874,-1.2874,-1.2874,-1.2865,-1.2864,-1.2864,-1.2863,-1.2894,-1.2895,-1.2897,0,0,0,0,0,0,0,0,0,0,0,0,0,-1.2779,-1.278,-1.2844,-1.2844,-1.2845,-1.2874,-1.2874,-1.2874,-1.2865,-1.2864,-1.2864,-1.2863,-1.2893,-1.2895,-1.2897,0,0,0,0,0,0,0,0,0,0,0,0,0,-1.2808,-1.2781,-1.2844,-1.2844,-1.2844,-1.2873,-1.2874,-1.2874,-1.2865,-1.2864,-1.2863,-1.2863,-1.2893,-1.2895,-1.2897,-1.2929,0,0,-1.2903,-1.2904,0,0,0,0,0,0,0,0,-1.2806,-1.281,-1.2843,-1.2844,-1.2844,-1.2865,-1.2862,-1.2893,-1.2866,-1.2857,-1.2863,-1.2862,-1.2885,-1.2888,-1.2895,-1.293,-1.2931,-1.2904,-1.2905,-1.2906,-1.2906,0,0,0,0,0,0,0,-1.2804,-1.2809,-1.2856,-1.2844,-1.2844,-1.2842,-1.2845,-1.2868,-1.2876,-1.2858,-1.2857,-1.2861,-1.2885,-1.2893,-1.2896,-1.2932,-1.2903,-1.2905,-1.2907,-1.2907,-1.2995,-1.2996,0,0,0,0,0,0,-1.2802,-1.2807,-1.2855,-1.2857,-1.2822,-1.2844,-1.2847,-1.2859,-1.2876,-1.2877,-1.2862,-1.286,-1.289,-1.2893,-1.2897,-1.2936,-1.2906,-1.2908,-1.2909,-1.2994,-1.2995,-1.2996,0,0,0,0,0,0,-1.2801,-1.2806,-1.2854,-1.2832,-1.2838,-1.2846,-1.2859,-1.286,-1.2868,-1.2879,-1.288,-1.2869,-1.2889,-1.2894,-1.2921,-1.2937,-1.2909,-1.291,-1.2992,-1.2994,-1.2995,-1.3014,0,0,0,0,0,0,-1.2799,-1.2806,-1.2818,-1.2832,-1.2839,-1.2877,-1.286,-1.2861,-1.2872,-1.2871,-1.2886,-1.2887,-1.2889,-1.2918,-1.2923,-1.2939,-1.2912,-1.2991,-1.2993,-1.2995,-1.3012,-1.3016,-1.3019,0,0,0,0,0,-1.2797,-1.2822,-1.2819,-1.2825,-1.2854,-1.2878,-1.2882,-1.2884,-1.2873,-1.2886,-1.2892,-1.2887,-1.2934,-1.2921,-1.2926,-1.2944,-1.299,-1.2992,-1.2995,-1.301,-1.3015,-1.3019,0,0,0,0,0,0,-1.281,-1.2824,-1.2821,-1.2851,-1.2864,-1.2877,-1.2892,-1.2889,-1.2904,-1.2902,-1.2904,-1.2907,-1.2935,-1.2942,-1.2927,-1.2975,-1.296,-1.2964,-1.297,-1.2975,-1.2978,-1.2977,-1.2914,0,0,0,0,0,-1.2817,-1.2835,-1.2846,-1.2872,-1.2878,-1.2884,-1.2895,-1.2895,-1.2908,-1.2913,-1.2921,-1.2934,-1.2952,-1.2963,-1.298,-1.3012,-1.3016,-1.3027,-1.303,-1.3033,-1.3037,-1.3055,-1.306,-1.3004,-1.3004,-1.3004,0,0,-1.283,-1.284,-1.2852,-1.2875,-1.2884,-1.2903,-1.2889,-1.2909,-1.2923,-1.2916,-1.2942,-1.2949,-1.2963,-1.2993,-1.3006,-1.2999,-1.3053,-1.3036,-1.3039,-1.3041,-1.3058,-1.3063,-1.3068,-1.3005,-1.3005,-1.3005,0,0,-1.2865,-1.2874,-1.2897,-1.2907,-1.2922,-1.2925,-1.2931,-1.2944,-1.2948,-1.2974,-1.2969,-1.2986,-1.3016,-1.3027,-1.3036,-1.3074,-1.307,-1.308,-1.31,-1.3117,-1.3122,-1.3126,-1.314,-1.3146,-1.3083,-1.3083,-1.3083,0,-1.2881,-1.2909,-1.291,-1.2931,-1.2941,-1.2935,-1.2958,-1.2968,-1.2987,-1.2995,-1.2986,-1.3024,-1.3033,-1.3066,-1.3075,-1.3082,-1.3089,-1.3079,-1.3121,-1.3125,-1.3129,-1.3143,-1.3148,-1.3084,-1.3084,-1.3084,-1.3084,0,-1.2928,-1.2948,-1.2964,-1.2983,-1.2996,-1.3018,-1.3022,-1.3034,-1.3032,-1.3037,-1.3064,-1.3074,-1.3094,-1.3101,-1.31,-1.3133,-1.3129,-1.312,-1.3106,-1.3135,-1.3149,-1.3154,-1.3086,-1.3085,-1.3085,-1.3085,0,0,-1.2974,-1.2992,-1.2998,-1.3007,-1.3022,-1.3038,-1.3059,-1.3078,-1.3089,-1.3102,-1.3121,-1.3146,-1.3139,-1.3149,-1.3149,-1.3164,-1.3195,-1.3154,-1.3155,-1.3163,-1.3234,-1.3241,-1.3247,-1.3192,-1.3193,-1.3193,-1.3233,0,-1.3011,-1.305,-1.305,-1.3086,-1.3104,-1.3098,-1.3117,-1.3128,-1.3133,-1.3149,-1.3154,-1.3173,-1.3161,-1.3167,-1.3182,-1.3188,-1.321,-1.3185,-1.321,-1.3211,-1.3208,-1.3254,-1.3262,-1.3299,-1.3238,-1.3239,-1.324,0,-1.306,-1.3075,-1.3113,-1.3125,-1.3133,-1.315,-1.3167,-1.3183,-1.3195,-1.3198,-1.3209,-1.3207,-1.3229,-1.3212,-1.3244,-1.3227,-1.3237,-1.3241,-1.3243,-1.3246,-1.3228,-1.326,-1.331,-1.3316,-1.3248,-1.3247,-1.3246,0,-1.3091,-1.3121,-1.3147,-1.3154,-1.317,-1.3182,-1.3189,-1.32,-1.3212,-1.3226,-1.3234,-1.325,-1.326,-1.3273,-1.3276,-1.3263,-1.3307,-1.3291,-1.331,-1.331,-1.3321,-1.3321,-1.3375,-1.3325,-1.3325,-1.3325,-1.3325,0,-1.3134,-1.3158,-1.3161,-1.3178,-1.3204,-1.3204,-1.323,-1.3236,-1.3246,-1.3263,-1.3258,-1.3275,-1.3276,-1.3293,-1.3294,-1.332,-1.3324,-1.3327,-1.3328,-1.3329,-1.3329,-1.3336,-1.3334,-1.3326,-1.3326,-1.3326,-1.3325,0,-1.3174,-1.3177,-1.3206,-1.3218,-1.3221,-1.324,-1.325,-1.3266,-1.3269,-1.3292,-1.3297,-1.3303,-1.3322,-1.3325,-1.3348,-1.3349,-1.3381,-1.3378,-1.3377,-1.3377,-1.3397,-1.3396,-1.3459,-1.3468,-1.3411,-1.3412,-1.3412,0,-1.3202,-1.322,-1.3234,-1.3245,-1.3253,-1.3271,-1.3282,-1.3282,-1.3294,-1.331,-1.3324,-1.3343,-1.3358,-1.339,-1.3396,-1.3414,-1.3412,-1.3433,-1.3415,-1.3415,-1.3414,-1.3414,-1.3416,-1.3437,-1.3438,-1.3439,-1.3439,0,-1.3251,-1.3252,-1.3269,-1.3286,-1.33,-1.3313,-1.3326,-1.3335,-1.3337,-1.3351,-1.3371,-1.3383,-1.3406,-1.3425,-1.3443,-1.345,-1.3445,-1.3444,-1.345,-1.3452,-1.3451,-1.3453,-1.3388,-1.3443,-1.3443,-1.3443,-1.3442,-1.3442,-1.3287,-1.3303,-1.3315,-1.3334,-1.3343,-1.3355,-1.3371,-1.3376,-1.3393,-1.3412,-1.3411,-1.3433,-1.3445,-1.3468,-1.3476,-1.3493,-1.3487,-1.3495,-1.3497,-1.3499,-1.3502,-1.3447,-1.3496,-1.3496,-1.3496,-1.3496,-1.3496,0,-1.3337,-1.3345,-1.3362,-1.338,-1.3395,-1.3388,-1.3402,-1.3415,-1.3434,-1.3446,-1.3461,-1.3484,-1.3502,-1.351,-1.3528,-1.3541,-1.3539,-1.3545,-1.3545,-1.3547,-1.3506,-1.35,-1.3546,-1.3546,-1.3546,-1.3546,-1.3546,-1.3546,-1.3365,-1.3392,-1.3394,-1.3426,-1.3433,-1.3455,-1.3463,-1.3474,-1.3483,-1.351,-1.3525,-1.3529,-1.3539,-1.3558,-1.3575,-1.3576,-1.3584,-1.3592,-1.3593,-1.3555,-1.355,-1.3545,-1.3539,-1.3593,-1.3593,-1.3632,-1.3633,-1.3633]}]]